Regional Weather Roundup
Issued by NWS

Home | Current Version | Previous Version | Graphics & Text | Print | Product List | Glossary On
Versions: 1 2 3 4 5 6 7 8 9 10 11 12 13 14 15 16 17 18 19 20 21 22 23 24 25 26 27 28 29 30 31 32 33 34 35 36 37 38 39 40 41 42 43 44 45 46 47 48 49 50
000
ASUS45 KBOI 030610
RWRID

IDAHO REGIONAL WEATHER ROUNDUP
NATIONAL WEATHER SERVICE BOISE ID
1200 AM MDT MON AUG 03 2015

NOTE: "FAIR" INDICATES FEW OR NO CLOUDS BELOW 12000 FEET
WITH NO SIGNIFICANT WEATHER AND/OR OBSTRUCTIONS TO VISIBILITY

IDZ012-014-030700-
SOUTHWEST IDAHO


CITY           SKY/WX    TMP DP  RH WIND       PRES   REMARKS
BOISE          MOCLDY    82  44  26 S5        29.77S
CALDWELL       MOCLDY    79  52  38 S7        29.77R
MOUNTAIN HOME  MOCLDY    82  40  22 SW10      29.80R
$$

IDZ016-017-030700-
SOUTHCENTRAL IDAHO


CITY           SKY/WX    TMP DP  RH WIND       PRES   REMARKS
BURLEY         MOCLDY    66  51  58 CALM      29.89R
JEROME         MOCLDY    71  47  42 CALM      29.88F
TWIN FALLS     MOCLDY    79  35  20 CALM      29.86S
$$

IDZ019>023-030700-
SOUTHEAST IDAHO


CITY           SKY/WX    TMP DP  RH WIND       PRES   REMARKS
IDAHO FALLS    MOCLDY    62  44  51 NW8       29.95S
POCATELLO      CLEAR     74  38  27 SW5       29.93S
REXBURG        MOCLDY    62  44  51 NE7       29.97S
$$

IDZ006-010-011-018-031-032-030700-
CENTRAL IDAHO MOUNTAINS


CITY           SKY/WX    TMP DP  RH WIND       PRES   REMARKS
MCCALL         CLOUDY    78  23  13 N7        29.98F
HAILEY         PTCLDY    66  43  42 NW8       30.02F
STANLEY          N/A     63  37  38 S6        30.13R
SALMON         MOCLDY    64  45  48 CALM      29.91R
CHALLIS        CLOUDY    70  44  39 N5        29.98S
$$

IDZ002-004-006-007-026-030700-
NORTHERN IDAHO


CITY           SKY/WX    TMP DP  RH WIND       PRES   REMARKS
LEWISTON       PTCLDY    85  25  11 SW9       29.76S
LOWELL           N/A     67  51  56 CALM      29.82R
COEUR D`ALENE  CLEAR     72  43  35 CALM      29.83S
MULLAN PASS    PTCLDY    71  20  14 NW6       30.11F
$$



USA.gov is the U.S. government's official web portal to all federal, state and local government web resources and services.